Wind_Speed
42 43 41 40 39 38 37 36 35 33 28 25 23 22 22 26 35 39 40 41 40 39 36 35 33 30 29 24 25 25 25 23 22 19 19 22 19 19 22 22 18 22 24 26 30
39 41 44 43 42 42 41 39 39 38 35 31 29 28 28 29 34 36 43 44 45 42 41 39 38 34 31 29 27 24 23 25 23 24 29 26 24 23 22 21 19 20 23 26 28
40 41 42 42 43 43 44 43 43 43 41 39 35 34 34 33 36 37 41 40 46 48 45 42 41 39 38 31 30 28 25 23 25 26 28 24 23 20 19 20 21 22 25 27 29
44 44 45 45 44 45 46 46 46 44 42 40 38 35 37 38 39 40 38 40 45 47 49 47 45 43 42 37 34 33 30 28 26 22 26 25 25 21 18 21 20 23 25 28 30
50 49 49 48 48 48 47 47 47 46 44 43 42 41 39 39 42 44 43 41 44 45 49 51 50 48 45 43 40 38 37 35 32 28 27 28 24 24 22 23 25 26 26 28 30
53 53 53 53 53 52 51 51 50 50 49 48 47 45 44 41 43 45 48 46 46 46 46 51 49 51 51 48 48 45 43 40 37 34 31 29 28 28 27 26 27 28 28 30 29
54 55 55 55 55 56 56 55 54 54 54 52 51 50 48 47 45 45 48 51 51 50 48 45 48 49 52 52 52 51 48 45 42 37 35 33 32 30 30 28 28 28 30 30 28
62 62 62 61 58 58 58 57 57 57 57 57 55 55 53 52 51 49 49 51 53 54 53 51 48 47 49 50 54 55 53 50 47 43 40 36 34 33 34 32 29 30 31 27 21
64 64 66 67 67 66 65 63 62 61 60 60 60 59 57 57 55 54 53 52 56 56 56 57 54 52 48 50 49 52 58 55 50 47 42 36 32 38 31 27 34 34 30 27 13
63 64 67 68 69 68 68 69 69 68 67 66 64 64 62 62 60 59 58 58 56 58 58 59 59 57 54 51 50 52 57 57 56 54 49 43 33 23 46 47 42 37 29 18 13
69 67 66 68 68 68 70 72 71 71 74 73 72 70 68 66 65 63 63 63 61 60 61 62 61 60 63 59 55 51 52 53 53 49 47 44 35 27 37 38 42 33 22 18 14
73 72 70 69 69 70 70 70 70 72 75 75 75 76 76 75 73 70 68 66 65 65 65 64 62 66 67 64 60 54 54 54 52 48 46 43 40 46 47 38 31 27 24 19 15
71 74 75 73 72 71 71 71 71 72 73 74 76 78 80 79 78 79 78 74 72 70 68 67 70 70 68 67 64 61 61 59 55 49 46 42 36 32 17 30 31 29 24 19 16
70 70 71 76 76 74 74 73 73 74 76 71 73 75 77 79 81 82 81 81 80 79 75 72 73 73 71 69 70 68 68 64 61 51 48 43 38 29 34 32 33 29 24 20 19
67 68 68 68 70 76 76 76 76 75 80 73 75 76 76 80 76 80 83 85 85 83 81 80 79 75 75 74 73 72 73 70 67 58 55 46 40 38 35 35 34 31 27 23 19
67 69 68 68 69 70 71 73 76 78 83 77 79 81 81 79 78 80 82 82 84 87 87 86 87 83 82 79 77 77 76 76 72 69 57 53 47 42 37 36 38 35 29 27 23
52 63 70 73 73 72 72 73 73 78 75 74 80 83 84 84 85 83 83 86 87 84 85 89 91 90 89 86 85 80 80 78 79 77 60 61 54 48 45 44 43 41 35 32 27
43 49 56 59 64 67 70 76 78 77 79 79 78 80 83 83 87 89 89 90 88 88 91 88 88 93 93 91 90 88 86 82 79 79 66 69 58 53 54 51 47 45 39 35 30
28 34 40 47 53 58 62 67 71 75 79 81 83 85 87 83 87 86 92 95 92 90 91 92 93 90 90 94 95 89 96 83 84 83 78 75 72 64 62 58 55 47 45 38 39
33 33 33 36 41 46 48 53 57 60 65 70 77 83 88 89 91 90 92 91 93 96 98 97 93 98 95 93 91 98 94 95 93 87 81 82 78 68 67 64 62 59 52 50 47
37 36 36 39 41 43 45 47 49 51 53 57 61 66 74 83 87 92 92 93 94 96 101 103 97 98 97 93 97 99 96 103 100 95 87 84 82 78 74 71 69 65 63 57 55
34 34 36 37 38 40 42 45 48 52 55 57 61 64 66 71 75 81 89 91 89 96 99 103 100 105 102 99 103 105 101 104 107 101 94 89 91 86 83 77 73 74 69 63 60
29 29 30 32 33 35 36 38 39 40 43 46 52 57 61 68 74 78 81 85 82 89 100 101 93 100 108 107 108 104 101 103 100 103 102 97 91 91 89 82 77 78 73 69 65
27 27 27 27 27 27 28 32 33 35 35 39 44 50 55 61 66 70 76 78 80 87 87 91 94 96 104 111 117 113 111 111 112 107 106 102 101 99 91 85 81 83 79 76 72
30 26 23 23 23 24 26 28 29 29 33 38 42 47 53 56 60 60 62 64 68 75 79 86 88 93 97 106 108 108 108 112 106 107 106 107 109 102 95 91 88 92 85 83 76
33 29 25 23 23 23 25 25 25 28 32 36 39 43 42 46 52 59 59 54 57 61 69 73 77 88 91 99 99 102 109 111 112 106 108 105 106 108 104 98 99 99 95 81 75
34 31 27 25 25 27 26 25 25 26 27 30 39 42 39 40 40 43 48 51 50 51 60 67 70 78 83 94 97 102 104 108 113 113 110 109 104 111 108 102 103 102 93 81 80
Wind_Direction
258 257 257 257 259 259 259 259 260 261 259 250 234 223 221 214 211 216 219 220 221 221 223 225 225 226 226 225 229 229 230 233 233 235 257 243 247 255 265 283 302 308 317 333 340
260 258 257 255 256 257 257 256 257 259 260 253 246 230 221 220 215 216 216 224 223 225 226 228 228 228 227 231 230 225 228 229 234 236 228 246 247 256 266 278 291 309 319 326 338
262 261 260 257 253 254 255 255 256 256 257 258 249 239 226 224 221 217 219 222 227 228 229 230 231 232 233 232 233 230 226 229 236 237 242 248 255 255 262 280 289 301 311 325 332
261 260 259 259 257 253 252 252 253 253 253 251 250 240 236 228 228 222 221 221 225 228 229 231 231 231 233 231 230 228 230 234 237 240 239 247 249 255 260 277 290 300 312 318 326
261 260 259 258 255 254 253 252 252 250 249 247 246 247 239 237 234 227 223 224 225 227 228 229 232 234 233 234 231 232 231 232 232 232 233 241 249 254 256 267 281 292 302 310 320
262 259 258 257 256 254 253 251 250 250 249 248 246 244 244 240 237 233 227 223 228 226 228 228 230 235 233 234 233 233 232 231 233 235 239 245 252 255 258 266 277 289 299 303 314
262 261 259 256 254 255 254 252 251 251 249 247 247 246 245 245 241 236 232 227 225 229 226 228 228 229 234 234 234 236 236 233 234 234 238 241 247 256 261 269 278 287 295 301 309
261 261 261 259 256 254 252 252 251 251 250 249 247 245 244 243 244 240 233 231 230 227 229 227 229 228 228 231 234 236 237 237 237 236 238 240 247 256 261 264 272 286 288 291 295
260 258 258 258 258 256 254 253 251 250 250 250 248 247 245 243 242 241 238 233 231 230 228 229 228 229 229 230 229 234 237 238 238 237 237 237 244 264 256 259 275 280 280 283 245
258 259 257 256 256 255 254 253 253 252 250 248 247 247 245 244 242 240 239 237 232 232 231 229 229 230 230 229 230 230 238 240 241 241 242 245 244 258 268 273 274 276 272 238 230
260 257 256 257 256 254 253 253 252 252 251 250 248 245 244 244 243 241 240 239 237 233 232 232 229 230 228 229 230 233 234 237 239 240 241 243 237 191 260 259 267 263 229 212 219
258 256 254 253 254 255 254 253 252 251 250 250 249 248 246 243 242 241 240 239 238 237 233 232 233 232 230 229 229 229 234 235 236 236 237 238 236 235 249 253 246 229 214 209 211
256 255 253 252 251 252 252 253 252 252 251 249 249 248 248 246 244 243 242 239 237 237 235 232 231 234 232 230 229 228 231 234 233 232 232 230 227 224 240 230 224 218 213 207 201
251 253 253 252 252 251 251 251 252 251 250 249 251 249 248 247 245 244 242 242 240 237 235 234 233 234 233 232 230 228 230 231 234 229 229 224 218 219 212 219 219 215 217 207 195
250 250 250 250 251 251 250 252 252 252 252 248 249 249 249 248 246 245 244 242 241 239 237 236 234 233 233 233 231 230 229 230 232 230 228 225 218 215 209 212 220 217 212 213 201
251 250 250 251 252 253 252 252 252 252 252 252 248 248 248 248 247 246 245 243 242 240 238 236 234 234 233 232 232 231 229 229 230 230 225 224 218 215 211 211 221 218 212 213 204
260 257 256 255 256 257 257 255 254 253 253 252 253 250 248 247 246 245 245 243 242 239 238 237 236 233 231 232 231 231 232 228 228 232 225 228 217 214 212 212 214 218 211 212 207
265 261 259 257 258 259 257 256 255 255 254 253 253 253 251 249 246 246 245 244 242 241 240 237 236 234 234 231 231 229 231 229 225 228 224 226 219 214 213 212 214 218 214 213 214
288 276 270 263 260 259 258 256 255 254 254 254 253 252 252 250 250 246 245 245 242 242 240 239 236 233 233 233 232 230 230 229 228 225 222 224 223 214 213 211 212 216 213 213 218
293 286 278 269 264 262 260 259 257 254 254 254 253 251 250 248 247 246 247 243 242 241 242 241 237 237 233 231 231 231 228 228 227 223 222 222 224 217 216 212 214 214 212 210 215
291 283 276 270 266 263 260 259 258 257 255 255 254 252 251 249 246 247 243 242 242 239 239 239 238 238 233 232 229 229 228 227 225 223 219 220 221 220 216 214 214 214 215 210 217
294 287 279 275 272 269 266 262 259 258 258 256 256 254 252 252 251 248 249 246 242 242 240 238 235 236 237 233 230 228 226 227 225 222 219 219 221 218 218 214 213 216 215 213 216
309 299 290 283 279 276 273 271 268 266 263 262 258 256 252 250 247 246 246 246 244 242 242 241 238 234 235 232 233 229 226 228 228 223 219 218 219 221 219 216 215 217 216 215 215
318 308 298 293 289 286 282 276 273 271 271 268 263 260 259 256 254 250 248 247 243 241 239 239 237 235 234 231 230 228 224 222 221 219 217 217 217 220 217 214 216 219 215 216 216
330 322 310 300 292 284 280 278 278 281 277 271 272 267 264 265 267 263 258 253 246 244 239 237 234 233 232 232 227 229 227 226 222 220 219 213 215 218 216 213 213 220 215 216 217
333 331 320 308 300 293 292 294 294 287 281 288 287 280 268 260 260 260 263 254 247 240 238 238 233 232 231 232 227 227 225 223 222 218 218 217 216 216 216 213 212 216 217 215 216
334 330 324 317 307 304 304 302 298 296 297 301 303 297 285 273 265 262 259 256 252 242 236 232 229 230 227 229 228 222 222 222 222 217 214 214 213 216 217 215 214 215 218 212 216
Height
10922 10923 10925 10928 10930 10932 10934 10936 10938 10941 10944 10946 10949 10950 10952 10952 10954 10957 10961 10964 10967 10971 10975 10979 10981 10985 10988 10991 10994 10998 10999 11002 11005 11009 11013 11009 11009 11008 11008 11008 11007 11006 11005 11001 10998
10913 10914 10915 10918 10921 10922 10925 10928 10930 10932 10935 10939 10941 10944 10946 10948 10949 10951 10955 10957 10961 10965 10969 10974 10977 10980 10983 10987 10990 10993 10996 10997 11001 11006 11009 11006 11007 11007 11007 11006 11006 11005 11003 11001 10998
10905 10905 10906 10908 10911 10913 10915 10918 10921 10923 10926 10929 10933 10936 10938 10940 10943 10946 10948 10950 10953 10958 10962 10967 10970 10975 10979 10982 10986 10989 10991 10994 10996 10999 11001 11003 11004 11004 11005 11005 11004 11003 11002 11000 10998
10894 10895 10895 10898 10900 10903 10905 10907 10910 10913 10916 10919 10922 10927 10930 10932 10934 10938 10941 10943 10945 10949 10955 10960 10963 10968 10972 10976 10979 10983 10986 10989 10991 10994 10997 10998 11000 11002 11004 11003 11002 11001 11001 10999 10997
10883 10883 10884 10886 10888 10891 10894 10896 10899 10902 10905 10909 10912 10915 10920 10923 10925 10929 10933 10936 10937 10942 10947 10952 10955 10959 10965 10969 10973 10976 10979 10982 10986 10989 10993 10993 10996 10998 11002 11002 11001 11000 11000 10998 10997
10870 10870 10872 10873 10875 10878 10881 10883 10886 10889 10892 10896 10900 10904 10907 10912 10915 10919 10923 10928 10930 10933 10937 10943 10948 10950 10955 10959 10963 10967 10971 10976 10980 10985 10989 10991 10993 10995 10998 10999 10998 10998 10999 10997 10996
10856 10856 10858 10860 10861 10863 10866 10870 10873 10876 10878 10883 10887 10891 10896 10899 10903 10908 10913 10917 10921 10924 10928 10932 10937 10941 10946 10951 10953 10958 10963 10969 10974 10980 10984 10989 10990 10992 10993 10995 10996 10996 10996 10996 10995
10840 10841 10841 10843 10848 10850 10852 10854 10857 10861 10864 10868 10873 10877 10883 10886 10890 10895 10900 10905 10910 10914 10918 10923 10927 10932 10935 10939 10944 10949 10954 10960 10968 10975 10980 10985 10988 10989 10989 10991 10993 10994 10994 10994 10993
10822 10822 10822 10824 10828 10832 10836 10840 10842 10845 10849 10852 10856 10862 10867 10872 10877 10882 10887 10893 10897 10902 10908 10913 10918 10920 10926 10929 10936 10937 10941 10953 10962 10968 10975 10981 10986 10984 10983 10986 10990 10992 10992 10992 10990
10802 10804 10803 10804 10808 10812 10816 10821 10824 10827 10831 10836 10841 10845 10852 10856 10862 10867 10872 10878 10885 10890 10895 10901 10905 10910 10915 10920 10922 10926 10933 10944 10952 10961 10969 10977 10986 10985 10976 10980 10986 10989 10989 10988 10988
10780 10784 10785 10786 10788 10791 10796 10801 10805 10809 10812 10816 10822 10828 10833 10839 10844 10851 10857 10862 10869 10876 10881 10885 10893 10897 10900 10908 10914 10920 10925 10932 10940 10952 10961 10969 10981 10986 10971 10974 10982 10985 10985 10985 10985
10756 10761 10764 10765 10768 10771 10775 10779 10782 10788 10792 10796 10801 10807 10813 10819 10825 10832 10839 10847 10854 10859 10865 10874 10881 10879 10888 10897 10904 10910 10914 10920 10929 10942 10951 10961 10968 10974 10972 10974 10978 10980 10981 10982 10983
10732 10736 10742 10744 10747 10751 10754 10757 10762 10766 10770 10775 10781 10788 10791 10798 10806 10811 10819 10828 10835 10842 10850 10857 10860 10865 10875 10885 10892 10898 10902 10907 10918 10930 10939 10950 10959 10965 10977 10974 10973 10975 10976 10978 10981
10708 10713 10719 10723 10725 10730 10734 10735 10739 10745 10746 10758 10760 10767 10770 10774 10784 10791 10798 10805 10815 10823 10831 10840 10844 10850 10859 10870 10876 10885 10888 10896 10905 10920 10928 10938 10947 10955 10963 10968 10968 10970 10972 10975 10976
10688 10691 10696 10700 10703 10709 10712 10715 10718 10722 10720 10740 10740 10742 10748 10752 10766 10766 10775 10784 10790 10800 10812 10822 10826 10835 10843 10851 10859 10869 10875 10884 10892 10908 10916 10930 10939 10947 10953 10959 10961 10964 10967 10971 10973
10668 10673 10677 10680 10683 10686 10690 10694 10697 10698 10696 10712 10714 10717 10723 10731 10739 10746 10752 10758 10766 10774 10786 10794 10804 10816 10824 10832 10843 10849 10860 10871 10879 10891 10906 10920 10929 10936 10944 10950 10952 10957 10962 10966 10969
10652 10655 10658 10661 10664 10667 10671 10673 10676 10673 10684 10690 10689 10694 10700 10708 10714 10720 10726 10732 10739 10751 10761 10766 10780 10790 10801 10812 10822 10833 10840 10854 10865 10873 10902 10903 10918 10928 10934 10938 10943 10949 10955 10960 10965
10637 10636 10638 10640 10642 10644 10646 10649 10652 10655 10658 10663 10666 10667 10673 10685 10688 10694 10700 10705 10713 10727 10733 10746 10755 10764 10778 10792 10800 10813 10821 10835 10851 10860 10883 10888 10907 10918 10920 10926 10935 10942 10949 10954 10960
10625 10623 10621 10621 10621 10622 10622 10624 10626 10629 10632 10636 10639 10642 10647 10657 10660 10668 10672 10677 10693 10702 10706 10718 10730 10742 10754 10767 10778 10801 10794 10828 10829 10842 10861 10873 10882 10896 10906 10915 10924 10936 10943 10951 10953
10613 10610 10608 10606 10605 10604 10605 10603 10604 10606 10607 10608 10610 10615 10617 10623 10630 10639 10638 10652 10662 10671 10679 10685 10706 10711 10728 10742 10759 10760 10788 10795 10807 10826 10848 10855 10868 10886 10893 10904 10912 10921 10931 10939 10946
10599 10595 10592 10590 10588 10588 10588 10588 10587 10587 10588 10587 10588 10591 10591 10593 10601 10602 10612 10619 10628 10640 10647 10656 10677 10684 10693 10720 10732 10735 10756 10763 10784 10802 10824 10840 10853 10863 10875 10887 10897 10907 10914 10923 10929
10582 10579 10576 10573 10573 10570 10570 10569 10568 10566 10565 10567 10567 10568 10570 10570 10572 10577 10580 10588 10606 10609 10618 10620 10645 10655 10669 10685 10688 10704 10730 10734 10750 10782 10804 10821 10827 10841 10856 10868 10880 10888 10899 10910 10917
10572 10567 10564 10560 10557 10555 10553 10552 10551 10551 10549 10547 10545 10543 10544 10542 10544 10547 10551 10553 10572 10578 10580 10592 10618 10629 10633 10650 10661 10680 10706 10717 10736 10758 10776 10798 10816 10823 10837 10855 10867 10876 10886 10897 10905
10563 10558 10553 10549 10546 10543 10540 10538 10538 10535 10533 10529 10525 10523 10521 10518 10518 10521 10522 10528 10540 10539 10555 10562 10575 10590 10604 10608 10609 10638 10662 10675 10689 10721 10750 10778 10788 10795 10823 10841 10850 10856 10869 10879 10890
10554 10549 10545 10540 10536 10533 10529 10526 10525 10523 10518 10512 10510 10506 10502 10499 10498 10498 10499 10504 10511 10513 10523 10530 10545 10554 10567 10575 10596 10615 10638 10655 10685 10707 10728 10753 10761 10783 10802 10819 10828 10832 10849 10860 10875
10546 10541 10535 10531 10526 10522 10518 10516 10513 10509 10506 10499 10493 10487 10484 10481 10479 10475 10473 10474 10480 10488 10494 10502 10516 10522 10539 10545 10568 10585 10605 10625 10649 10684 10706 10731 10753 10762 10776 10792 10800 10813 10825 10854 10869
10540 10534 10528 10523 10517 10512 10510 10506 10502 10498 10494 10488 10479 10471 10467 10463 10460 10458 10455 10454 10456 10462 10469 10477 10489 10494 10511 10514 10530 10551 10575 10597 10622 10648 10675 10701 10731 10742 10759 10774 10781 10789 10818 10844 10852